Location: Newark
(45.4422°N, 16.2769°E)
Time: 01:29:41
(UTC+00:00)

Courier 1B Rocket - Pass Details

Date: 10 December 2019
Orbit: 920 x 1202 km, 28.2° (Epoch: 23 January)

Event Time Altitude Azimuth Distance (km) Brightness Sun altitude
Rises 06:23:03 0° 230° (SW) 3,751 7.9 -0.9°
Reaches altitude 10° 06:26:56 10° 210° (SSW) 2,743 7.4 -0.3°
Maximum altitude 06:30:42 16° 175° (S) 2,295 7.6 0.2°
Drops below altitude 10° 06:34:21 10° 140° (SE) 2,655 9.1 0.8°
Sets 06:38:01 0° 119° (ESE) 3,569 10.8 1.3°
